129  
ASUS45 KSLC 280610  
RWRUT  
 
UTAH REGIONAL WEATHER ROUNDUP  
NATIONAL WEATHER SERVICE SALT LAKE CITY UT  
1100 PM MST SAT FEB 27 2021  
 
UTZ001>011-023>025-280700-  
 
NORTHERN UTAH  
 
CITY SKY/WX TMP DP RH WIND PRES REMARKS
 
BRIGHAM CITY MOCLDY 26 17 66 CALM 30.15R  
HILL AFB CLEAR 21 14 74 E10 30.12R WCI 10  
LOGAN CLEAR 15 12 88 CALM 30.14R  
OGDEN PTCLDY 22 14 71 S8 30.12R WCI 12  
SALT LAKE CITY MOCLDY 27 23 85 W3 30.14R  
TOOELE VALLEY CLOUDY 23 23 100 S3 30.16R  
WENDOVER PTCLDY 27 13 55 NW13G21 30.17R WCI 16  
HEBER CITY N/A 18 12 79 E6 30.07R WCI 9  
WEST JORDAN CLOUDY 25 24 94 W6 30.13R WCI 18  
 

 
 
UTZ011>015-024>027-280700-  
 
CENTRAL/NORTHEAST UTAH  
 
CITY SKY/WX TMP DP RH WIND PRES REMARKS
 
PROVO AIRPORT CLOUDY 26 20 77 S12 30.14R WCI 16  
MOAB/CANYONLAN PTCLDY 20 -2 38 NW8 30.01R WCI 10  
DELTA PTCLDY 21 14 73 MISG 30.13S  
PRICE CLEAR 21 6 52 NW8 30.01R WCI 11  
RICHFIELD CLEAR 21 14 73 NW3 30.10R  
ROOSEVELT CLEAR 21 9 58 W3 30.07R  
DUCHESNE PTCLDY 18 5 57 W13 30.04R WCI 4  
VERNAL PTCLDY 23 9 55 NW5 30.03R WCI 17  
 

 
 
UTZ013>016-019>022-027-280700-  
 
SOUTHERN UTAH  
 
CITY SKY/WX TMP DP RH WIND PRES REMARKS
 
BRYCE CANYON PTCLDY 13 5 70 NW12 29.98R WCI -1  
CEDAR CITY MOCLDY 21 8 57 NE5 30.08R WCI 15  
MILFORD MOCLDY 23 14 68 N8 30.11R WCI 14  
PANGUITCH N/A 14 9 79 NW8 30.04R WCI 3  
ST GEORGE MOCLDY 39 9 29 SW7 30.13R WCI 34  
HANKSVILLE MOCLDY 28 3 34 W7 30.07R WCI 21  
KANAB CLEAR 28 3 34 N7 30.10R WCI 21  
BLANDING N/A 27 1 32 SW3 30.02S  
 

 
 
REGIONAL REPORTS COLORADO/ARIZONA  
 
CITY SKY/WX TMP DP RH WIND PRES REMARKS
 
CRAIG, CO CLOUDY 13 10 88 CALM 30.01R  
GRAND JUNCTION CLOUDY 23 4 44 N8 30.00R WCI 14  
RIFLE, CO MOCLDY 19 9 65 SE3 30.00R  
MONTROSE, CO PTCLDY 22 9 57 E5 30.00R WCI 16  
CORTEZ, CO CLEAR 23 8 52 E8 29.95R WCI 14  
COLORADO CITY N/A 27 1 33 NW13 30.08S WCI 16  
PAGE, AZ CLOUDY 34 13 41 S6 30.02R WCI 29  
GRAND CANYON CLEAR 22 -1 36 CALM 29.99R  
KINGMAN, AZ CLEAR 34 -1 22 NE9 30.07R WCI 27  
FLAGSTAFF, AZ CLEAR 25 -2 31 N5 29.98R WCI 19  
 

 
 
REGIONAL REPORTS NEVADA/IDAHO/WYOMING  
 
CITY SKY/WX TMP DP RH WIND PRES REMARKS
 
LAS VEGAS, NV PTCLDY 48 7 18 N13G28 30.14R  
ELY, NY PTCLDY 14 6 70 NW7 30.13R WCI 4  
ELKO, NV PTCLDY 17 10 74 NW6 30.20R WCI 9  
POCATELLO, ID CLEAR 25 17 72 SW13 30.13R WCI 14  
BURLEY, ID CLEAR 26 16 65 SW12 30.15R WCI 16  
EVANSTON, WY CLEAR 9 5 84 SW7 30.02R WCI -2  
ROCK SPRINGS, CLEAR 10 6 84 W12 29.99R WCI -5  
KEMMERER, WY CLEAR 5 1 85 NW5 30.00R WCI -4  
 

 
 
 
CLICK HERE TO GO TO PREVIOUS BULLETINS.

The Nexlab UT Page Main Text Page